Location: Bjelajci
(45.0103°N, 16.1758°E)
Time: 09:19:43
(UTC+00:00)

Okean 2 - Pass Details

Date: 14 July 2020
Orbit: 559 x 578 km, 82.5° (Epoch: 07 August)

Event Time Altitude Azimuth Distance (km) Brightness Sun altitude
Rises 02:32:46 0° 348° (NNW) 2,763 7.3 -7.8°
Reaches altitude 10° 02:34:58 10° 345° (NNW) 1,860 6.4 -7.5°
Maximum altitude 02:39:01 64° 265° (W) 622 3.4 -7.0°
Drops below altitude 10° 02:43:02 10° 183° (S) 1,841 5.6 -6.4°
Sets 02:45:12 0° 181° (S) 2,731 6.5 -6.1°
